TVS2589 LKTB-LKPR

Flight info

Callsign TVS2589
Flight time 0h 33m
Altitude 18000
Route TUMKA DCT VLM
Aircraft B738/M-SDE2E3FGHIRWXY/LB1

Departure

Time 2026-05-06 19:28
Airport Brno-Tuřany Airport (LKTB)

Arrival

Time 2026-05-06 20:01
Airport Václav Havel Airport Prague (LKPR)
Time Latitude Longitude Altitude Speed Heading
2026-05-06 19:05 49.15397 16.69012 786 ft 0 kts 186°
2026-05-06 19:24 49.15389 16.69011 786 ft 2 kts 195°
2026-05-06 19:24 49.15365 16.68949 785 ft 10 kts 261°
2026-05-06 19:25 49.15367 16.68864 785 ft 13 kts 276°
2026-05-06 19:25 49.15386 16.68634 785 ft 19 kts 277°
2026-05-06 19:25 49.15405 16.68404 782 ft 22 kts 279°
2026-05-06 19:25 49.15425 16.68183 777 ft 20 kts 278°
2026-05-06 19:26 49.15444 16.67972 773 ft 19 kts 278°
2026-05-06 19:26 49.15460 16.67792 770 ft 13 kts 278°
2026-05-06 19:26 49.15465 16.67689 768 ft 9 kts 256°
2026-05-06 19:26 49.15396 16.67626 766 ft 14 kts 191°
2026-05-06 19:27 49.15309 16.67614 766 ft 9 kts 150°
2026-05-06 19:27 49.15275 16.67716 767 ft 24 kts 102°
2026-05-06 19:27 49.15216 16.68371 778 ft 97 kts 97°
2026-05-06 19:27 49.15103 16.69721 770 ft 155 kts 99°
2026-05-06 19:28 49.15002 16.71421 1284 ft 165 kts 105°
2026-05-06 19:28 49.14796 16.73159 1968 ft 170 kts 104°
2026-05-06 19:28 49.14648 16.74967 2558 ft 177 kts 102°
2026-05-06 19:28 49.14677 16.76853 3169 ft 183 kts 73°
2026-05-06 19:29 49.15340 16.78429 3862 ft 182 kts 39°
2026-05-06 19:29 49.16501 16.79165 4425 ft 188 kts
2026-05-06 19:29 49.17841 16.78791 4696 ft 210 kts 332°
2026-05-06 19:29 49.19010 16.77232 4986 ft 236 kts 308°
2026-05-06 19:30 49.20051 16.75219 5592 ft 250 kts 313°
2026-05-06 19:30 49.21352 16.73374 6199 ft 267 kts 322°
2026-05-06 19:30 49.22808 16.71536 6985 ft 275 kts 311°
2026-05-06 19:30 49.23758 16.69010 7849 ft 278 kts 291°
2026-05-06 19:31 49.24437 16.66232 8692 ft 283 kts 291°
2026-05-06 19:31 49.25164 16.63458 9524 ft 287 kts 293°
2026-05-06 19:31 49.26816 16.57714 10572 ft 317 kts 294°
2026-05-06 19:32 49.27767 16.54499 10793 ft 342 kts 295°
2026-05-06 19:32 49.28772 16.51111 11329 ft 354 kts 295°
2026-05-06 19:32 49.29795 16.47661 12034 ft 360 kts 295°
2026-05-06 19:32 49.30823 16.44193 12818 ft 363 kts 295°
2026-05-06 19:33 49.31878 16.40628 13558 ft 367 kts 295°
2026-05-06 19:33 49.32924 16.37089 14279 ft 371 kts 295°
2026-05-06 19:33 49.33998 16.33452 14990 ft 375 kts 294°
2026-05-06 19:33 49.35074 16.29801 15681 ft 378 kts 294°
2026-05-06 19:34 49.36165 16.26093 16352 ft 382 kts 294°
2026-05-06 19:34 49.37248 16.22410 16918 ft 385 kts 294°
2026-05-06 19:34 49.38362 16.18612 16993 ft 390 kts 294°
2026-05-06 19:34 49.39475 16.14812 17007 ft 391 kts 294°
2026-05-06 19:35 49.40216 16.12279 17014 ft 399 kts 294°
2026-05-06 19:35 49.41762 16.06988 16998 ft 411 kts 294°
2026-05-06 19:35 49.42920 16.03015 16998 ft 413 kts 294°
2026-05-06 19:35 49.44087 15.99007 16996 ft 412 kts 294°
2026-05-06 19:36 49.45250 15.95004 16999 ft 411 kts 294°
2026-05-06 19:36 49.46414 15.90991 17000 ft 411 kts 294°
2026-05-06 19:36 49.47575 15.86982 17000 ft 412 kts 294°
2026-05-06 19:36 49.48739 15.82957 17000 ft 412 kts 294°
2026-05-06 19:37 49.49899 15.78937 16999 ft 411 kts 294°
2026-05-06 19:37 49.51052 15.74936 16999 ft 411 kts 294°
2026-05-06 19:37 49.52215 15.70895 17000 ft 411 kts 294°
2026-05-06 19:37 49.52978 15.68239 17000 ft 411 kts 294°
2026-05-06 19:38 49.54517 15.62871 16999 ft 411 kts 294°
2026-05-06 19:38 49.55668 15.58850 16999 ft 411 kts 294°
2026-05-06 19:38 49.56830 15.54785 16999 ft 411 kts 294°
2026-05-06 19:38 49.57975 15.50769 16999 ft 411 kts 294°
2026-05-06 19:39 49.59126 15.46729 16999 ft 411 kts 294°
2026-05-06 19:39 49.60272 15.42700 16999 ft 411 kts 294°
2026-05-06 19:39 49.61420 15.38655 16999 ft 411 kts 294°
2026-05-06 19:39 49.62551 15.34661 16999 ft 411 kts 293°
2026-05-06 19:40 49.63686 15.30649 17000 ft 411 kts 293°
2026-05-06 19:40 49.64839 15.26567 16842 ft 408 kts 293°
2026-05-06 19:40 49.65951 15.22622 15931 ft 408 kts 293°
2026-05-06 19:40 49.67070 15.18645 15283 ft 400 kts 293°
2026-05-06 19:41 49.68174 15.14716 14461 ft 397 kts 293°
2026-05-06 19:41 49.69343 15.10954 13741 ft 392 kts 298°
2026-05-06 19:41 49.70760 15.07361 13084 ft 385 kts 306°
2026-05-06 19:41 49.72466 15.04220 13003 ft 380 kts 315°
2026-05-06 19:42 49.74394 15.01449 12998 ft 388 kts 319°
2026-05-06 19:42 49.76458 14.98685 12994 ft 389 kts 319°
2026-05-06 19:42 49.78487 14.95994 12998 ft 388 kts 319°
2026-05-06 19:42 49.80552 14.93253 12999 ft 388 kts 319°
2026-05-06 19:43 49.82595 14.90537 13000 ft 388 kts 319°
2026-05-06 19:43 49.84629 14.87831 12998 ft 388 kts 319°
2026-05-06 19:43 49.86686 14.85088 12999 ft 388 kts 319°
2026-05-06 19:43 49.88727 14.82363 12999 ft 388 kts 319°
2026-05-06 19:44 49.90750 14.79660 12999 ft 388 kts 319°
2026-05-06 19:44 49.92786 14.76934 12999 ft 388 kts 319°
2026-05-06 19:44 49.94829 14.74198 12999 ft 388 kts 319°
2026-05-06 19:44 49.96875 14.71453 12999 ft 388 kts 319°
2026-05-06 19:45 49.98228 14.69636 12999 ft 388 kts 319°
2026-05-06 19:45 50.00907 14.65960 12995 ft 388 kts 315°
2026-05-06 19:45 50.02656 14.62772 12992 ft 385 kts 308°
2026-05-06 19:45 50.04252 14.59532 12569 ft 375 kts 307°
2026-05-06 19:46 50.05797 14.56354 11661 ft 367 kts 307°
2026-05-06 19:46 50.07288 14.53289 10882 ft 353 kts 308°
2026-05-06 19:46 50.08752 14.50358 10333 ft 334 kts 308°
2026-05-06 19:46 50.10122 14.47648 10177 ft 308 kts 308°
2026-05-06 19:47 50.11381 14.45157 10053 ft 286 kts 308°
2026-05-06 19:47 50.12567 14.42810 9856 ft 277 kts 308°
2026-05-06 19:47 50.13759 14.40449 9534 ft 275 kts 309°
2026-05-06 19:47 50.14936 14.38117 9248 ft 272 kts 309°
2026-05-06 19:48 50.16082 14.35845 9154 ft 262 kts 309°
2026-05-06 19:48 50.17184 14.33660 9043 ft 253 kts 308°
2026-05-06 19:48 50.18254 14.31539 8995 ft 247 kts 308°
2026-05-06 19:48 50.19306 14.29451 8975 ft 248 kts 308°
2026-05-06 19:49 50.20375 14.27327 8618 ft 251 kts 308°
2026-05-06 19:49 50.21456 14.25182 8380 ft 248 kts 308°
2026-05-06 19:49 50.22519 14.23070 8103 ft 247 kts 308°
2026-05-06 19:49 50.23575 14.20971 7830 ft 246 kts 308°
2026-05-06 19:50 50.24632 14.18870 7557 ft 245 kts 308°
2026-05-06 19:50 50.25683 14.16779 7284 ft 245 kts 308°
2026-05-06 19:50 50.26734 14.14688 7031 ft 243 kts 308°
2026-05-06 19:50 50.27763 14.12639 7002 ft 240 kts 308°
2026-05-06 19:51 50.28793 14.10587 7008 ft 245 kts 308°
2026-05-06 19:51 50.29848 14.08488 6996 ft 244 kts 308°
2026-05-06 19:51 50.30887 14.06416 6808 ft 242 kts 308°
2026-05-06 19:51 50.31930 14.04336 6358 ft 242 kts 308°
2026-05-06 19:52 50.32958 14.02287 5995 ft 240 kts 308°
2026-05-06 19:52 50.33928 14.00197 5595 ft 239 kts 301°
2026-05-06 19:52 50.34654 13.97876 5246 ft 235 kts 289°
2026-05-06 19:52 50.35038 13.95395 5230 ft 234 kts 277°
2026-05-06 19:53 50.35084 13.92819 5218 ft 240 kts 265°
2026-05-06 19:53 50.34795 13.90265 5207 ft 238 kts 253°
2026-05-06 19:53 50.34189 13.87878 5139 ft 235 kts 242°
2026-05-06 19:53 50.33292 13.85727 4806 ft 237 kts 230°
2026-05-06 19:54 50.32143 13.83939 4559 ft 235 kts 218°
2026-05-06 19:54 50.30771 13.82560 4428 ft 230 kts 206°
2026-05-06 19:54 50.29279 13.81696 4453 ft 235 kts 194°
2026-05-06 19:54 50.27655 13.81320 4456 ft 236 kts 182°
2026-05-06 19:55 50.26562 13.81363 4453 ft 235 kts 174°
2026-05-06 19:55 50.24466 13.82141 4449 ft 234 kts 158°
2026-05-06 19:55 50.23025 13.83298 4449 ft 235 kts 146°
2026-05-06 19:55 50.21752 13.84916 4465 ft 234 kts 134°
2026-05-06 19:56 50.20791 13.86936 4403 ft 237 kts 111°
2026-05-06 19:56 50.20483 13.89453 4200 ft 234 kts 94°
2026-05-06 19:56 50.20386 13.91954 4277 ft 232 kts 92°
2026-05-06 19:56 50.20385 13.94516 4327 ft 234 kts 90°
2026-05-06 19:57 50.20374 13.97051 4328 ft 237 kts 91°
2026-05-06 19:57 50.20360 13.99587 4258 ft 234 kts 90°
2026-05-06 19:57 50.20369 14.02113 4221 ft 233 kts 89°
2026-05-06 19:57 50.20207 14.04641 4215 ft 232 kts 107°
2026-05-06 19:58 50.19547 14.06913 4215 ft 235 kts 122°
2026-05-06 19:58 50.18589 14.09035 3919 ft 240 kts 129°
2026-05-06 19:58 50.17439 14.10910 3582 ft 235 kts 136°
2026-05-06 19:58 50.16390 14.12708 3230 ft 214 kts 128°
2026-05-06 19:59 50.15514 14.14449 2827 ft 195 kts 127°
2026-05-06 19:59 50.14745 14.16019 2580 ft 176 kts 127°
2026-05-06 19:59 50.14028 14.17550 2504 ft 168 kts 126°
2026-05-06 19:59 50.13385 14.18958 2241 ft 157 kts 125°
2026-05-06 20:00 50.12781 14.20321 1975 ft 149 kts 124°
2026-05-06 20:00 50.12192 14.21629 1736 ft 147 kts 126°
2026-05-06 20:00 50.11582 14.22882 1567 ft 147 kts 127°
2026-05-06 20:00 50.10970 14.24168 1366 ft 146 kts 126°
2026-05-06 20:01 50.10392 14.25386 1256 ft 122 kts 127°
2026-05-06 20:01 50.10027 14.26135 1255 ft 59 kts 126°
2026-05-06 20:01 50.09875 14.26481 1255 ft 25 kts 101°
2026-05-06 20:01 50.09886 14.26740 1255 ft 21 kts 82°
2026-05-06 20:02 50.09901 14.26901 1255 ft 2 kts 81°
2026-05-06 20:02 50.09903 14.26918 1255 ft 0 kts 81°
2026-05-06 20:02 50.09903 14.26922 1255 ft 0 kts 81°
2026-05-06 20:02 50.09904 14.26935 1255 ft 2 kts 81°
2026-05-06 20:03 50.09909 14.26989 1255 ft 7 kts 81°
2026-05-06 20:03 50.09920 14.27098 1255 ft 10 kts 60°
2026-05-06 20:03 50.09983 14.27047 1255 ft 16 kts 306°
2026-05-06 20:03 50.10061 14.26881 1255 ft 22 kts 307°
2026-05-06 20:04 50.10157 14.26683 1255 ft 22 kts 307°
2026-05-06 20:04 50.10245 14.26501 1255 ft 19 kts 307°
2026-05-06 20:04 50.10324 14.26340 1255 ft 17 kts 307°
2026-05-06 20:04 50.10393 14.26197 1255 ft 15 kts 307°
2026-05-06 20:05 50.10435 14.26111 1255 ft 14 kts 307°
2026-05-06 20:05 50.10514 14.25986 1255 ft 10 kts 346°
2026-05-06 20:05 50.10572 14.26025 1255 ft 8 kts 58°
2026-05-06 20:05 50.10571 14.26110 1255 ft 8 kts 116°
2026-05-06 20:06 50.10531 14.26248 1255 ft 14 kts 117°
2026-05-06 20:06 50.10479 14.26373 1255 ft 12 kts 124°
2026-05-06 20:06 50.10432 14.26475 1255 ft 10 kts 130°
2026-05-06 20:06 50.10405 14.26548 1255 ft 5 kts 63°
2026-05-06 20:07 50.10425 14.26567 1255 ft 2 kts 31°
2026-05-06 20:07 50.10432 14.26574 1255 ft 0 kts 32°
2026-05-06 20:07 50.10434 14.26575 1255 ft 0 kts 32°